x

8454000 - Providence, Ri (foxr1) Weather Station

5:18 - Thu 28th Aug 2014 All times are EDT. -4 hours from GMT.

  • Wind
    11mph, 17mph gusts
  • Sea Temp 74°f
  • Luft Temp 72°f
  • Sea Pressure 1008.2mb
  • 8454000 - Providence, Ri
  • 8454000 - Providence, Ri

More Historic Weather Station data

Upgrade to MSW Pro to gain access to the past 30 days of data for over 8000 Wavebouys and Weather Stations around the globe.

Join Pro

Comparision Forecast

View Surf forecast
   
Do 08/28 5:18 11 17 mph 1008.2mb 74f 72f
5:12 10 15 mph 1008.2mb 74f 72f
5:06 10 13 mph 1008.2mb 74f 72f
5:00 9 15 mph 1008.1mb 74f 72f
4:54 11 16 mph 1008.1mb 74f 72f
4:48 10 15 mph 1008.1mb 74f 72f
4:42 9 13 mph 1008.1mb 74f 72f
4:36 9 14 mph 1008.1mb 74f 72f
4:30 8 11 mph 1008.2mb 74f 72f
4:24 9 11 mph 1008.1mb 74f 72f
4:18 9 11 mph 1008mb 74f 72f
4:12 7 10 mph 1008mb 74f 73f
4:06 6 10 mph 1008.2mb 74f 73f
4:00 7 10 mph 1008.2mb 74f 73f
3:54 6 11 mph 1008.1mb 74f 73f
3:48 6 9 mph 1008.2mb 74f 73f
3:42 7 10 mph 1008.3mb 74f 73f
3:36 7 10 mph 1008.3mb 74f 73f
3:30 6 8 mph 1008.3mb 74f 73f
3:24 7 10 mph 1008.4mb 74f 73f
3:18 7 9 mph 1008.5mb 74f 73f
3:12 8 10 mph 1008.5mb 74f 73f
3:06 7 8 mph 1008.5mb 74f 73f
3:00 7 9 mph 1008.5mb 74f 73f
2:54 5 8 mph 1008.5mb 74f 73f
2:48 5 6 mph 1008.7mb 74f 73f
2:42 3 6 mph 1008.7mb 74f 74f
2:36 5 6 mph 1008.8mb 74f 74f
2:30 5 7 mph 1008.8mb 74f 74f
2:24 3 8 mph 1008.8mb 74f 74f
2:18 7 9 mph 1009mb 74f 74f
2:12 7 9 mph 1008.9mb 74f 74f
2:06 7 10 mph 1008.9mb 74f 74f
2:00 5 7 mph 1008.9mb 74f 74f
1:54 3 7 mph 1008.9mb 74f 74f
1:48 5 6 mph 1009mb 74f 74f
1:42 3 6 mph 1009.1mb 74f 74f
1:36 5 6 mph 1009.1mb 74f 74f
1:30 3 6 mph 1009.3mb 74f 74f
1:24 2 5 mph 1009.3mb 74f 74f
1:18 2 3 mph 1009.4mb 74f 74f
1:12 2 3 mph 1009.4mb 74f 74f
1:06 2 3 mph 1009.5mb 74f 74f
1:00 1 5 mph 1009.7mb 74f 74f
12:54 2 5 mph 1009.8mb 74f 74f
12:48 3 5 mph 1009.8mb 74f 74f
12:42 5 6 mph 1009.8mb 74f 74f
12:36 1 5 mph 1009.9mb 74f 74f
12:30 3 5 mph 1009.9mb 74f 74f
12:24 5 6 mph 1009.9mb 74f 74f
12:18 5 6 mph 1010.1mb 74f 74f
12:12 3 6 mph 1010.2mb 74f 74f
12:06 5 6 mph 1010.1mb 74f 74f
12:00 5 7 mph 1010.3mb 74f 74f
Mi 08/27 11:54 6 7 mph 1010.4mb 74f 74f
11:48 5 9 mph 1010.4mb 74f 74f
11:42 6 9 mph 1010.4mb 74f 74f
11:36 7 9 mph 1010.5mb 74f 74f
11:30 5 9 mph 1010.5mb 74f 74f
11:24 6 8 mph 1010.4mb 73f 74f
11:18 5 8 mph 1010.5mb 73f 74f
11:12 2 5 mph 1010.6mb 73f 75f
11:06 2 9 mph 1010.5mb 73f 75f
11:00 7 8 mph 1010.6mb 73f 75f
10:54 6 9 mph 1010.5mb 73f 75f
10:48 3 8 mph 1010.5mb 73f 75f
10:42 7 9 mph 1010.6mb 73f 75f
10:36 6 8 mph 1010.7mb 73f 75f
10:30 7 9 mph 1010.8mb 73f 75f
10:24 5 8 mph 1010.8mb 73f 75f
10:18 6 8 mph 1010.9mb 73f 75f
10:12 5 7 mph 1011mb 73f 75f
10:06 3 9 mph 1011mb 73f 76f
10:00 3 8 mph 1011.1mb 73f 76f
9:54 5 8 mph 1011.2mb 73f 76f
9:48 6 8 mph 1011.1mb 73f 76f
9:42 6 11 mph 1011.2mb 73f 76f
9:36 7 8 mph 1011.2mb 73f 77f
9:30 3 7 mph 1011.2mb 73f 77f
9:24 5 7 mph 1011.2mb 73f 77f
9:18 5 7 mph 1011.2mb 73f 77f
9:12 7 9 mph 1011.2mb 73f 78f
9:06 8 10 mph 1011.2mb 73f 77f
9:00 7 10 mph 1011.3mb 73f 78f
8:54 7 10 mph 1011.4mb 73f 78f
8:48 7 10 mph 1011.7mb 73f 78f
8:42 7 13 mph 1011.8mb 73f 78f
8:36 8 10 mph 1011.7mb 73f 79f
8:30 6 9 mph 1011.7mb 72f 79f
8:24 5 7 mph 1011.7mb 72f 78f
8:18 6 9 mph 1011.5mb 72f 78f
8:12 7 10 mph 1011.3mb 72f 78f
8:06 7 9 mph 1011.2mb 72f 78f
8:00 6 10 mph 1011.2mb 72f 79f
7:54 5 9 mph 1011.3mb 72f 80f
7:48 7 9 mph 1011.3mb 72f 80f
7:42 6 11 mph 1011.3mb 72f 80f
7:36 7 11 mph 1011.2mb 72f 81f
7:30 5 9 mph 1011.1mb 72f 81f
7:24 8 11 mph 1011.1mb 73f 81f
7:18 6 8 mph 1011mb 73f 79f
7:12 6 10 mph 1011mb 73f 80f
7:06 5 10 mph 1010.9mb 73f 81f
7:00 5 10 mph 1010.9mb 73f 81f
6:54 11 16 mph 1010.9mb 73f 82f
6:48 7 13 mph 1010.8mb 73f 82f
6:42 10 14 mph 1010.9mb 73f 82f
6:36 10 16 mph 1010.8mb 73f 83f
6:30 9 14 mph 1010.7mb 73f 83f
6:24 7 10 mph 1010.7mb 73f 84f
6:18 7 14 mph 1010.7mb 73f 84f
6:12 9 15 mph 1010.8mb 73f 84f
6:06 10 16 mph 1010.8mb 73f 83f
6:00 13 16 mph 1010.8mb 73f 83f
5:54 9 15 mph 1010.8mb 73f 84f
5:48 10 16 mph 1010.7mb 73f 84f
5:42 14 17 mph 1010.7mb 73f 84f
5:36 13 18 mph 1010.7mb 73f 85f
5:30 9 14 mph 1010.7mb 73f 85f
5:24 11 16 mph 1010.8mb 73f 86f
5:18 10 15 mph 1010.8mb 73f 85f
5:12 11 16 mph 1010.8mb 73f 85f
5:06 13 16 mph 1010.9mb 73f 86f
5:00 10 15 mph 1011mb 73f 86f
4:54 9 15 mph 1011mb 73f 86f
4:48 10 13 mph 1011.1mb 73f 86f
4:42 11 16 mph 1011.1mb 73f 86f
4:36 11 15 mph 1011.1mb 73f 87f
4:30 11 17 mph 1011mb 73f 87f
4:24 10 17 mph 1011mb 73f 87f
4:18 13 17 mph 1011mb 73f 87f
4:12 11 18 mph 1011.1mb 73f 87f
4:06 10 15 mph 1011.2mb 73f 87f
4:00 10 18 mph 1011.2mb 73f 88f
3:54 10 18 mph 1011.2mb 73f 87f
3:48 13 17 mph 1011.2mb 73f 87f
3:42 11 18 mph 1011.3mb 73f 87f
3:36 8 18 mph 1011.3mb 73f 88f
3:30 13 18 mph 1011.4mb 73f 87f
3:24 9 17 mph 1011.4mb 73f 87f
3:18 13 18 mph 1011.5mb 73f 87f
3:12 13 17 mph 1011.5mb 73f 87f
3:06 10 21 mph 1011.6mb 73f 87f
3:00 13 21 mph 1011.7mb 73f 87f
2:54 11 17 mph 1011.7mb 73f 87f
2:48 10 17 mph 1011.8mb 73f 87f
2:42 13 18 mph 1011.9mb 73f 87f
2:36 14 18 mph 1011.9mb 73f 87f
2:30 13 17 mph 1012mb 73f 87f
2:24 11 16 mph 1012mb 73f 88f
2:18 9 17 mph 1012.1mb 73f 87f
2:12 13 16 mph 1012.2mb 73f 87f
2:06 14 17 mph 1012.3mb 73f 87f
2:00 14 17 mph 1012.3mb 73f 87f
1:54 8 14 mph 1012.3mb 73f 87f
1:48 9 14 mph 1012.5mb 73f 88f
1:42 8 13 mph 1012.6mb 73f 88f
1:36 9 14 mph 1012.6mb 73f 87f
1:30 8 13 mph 1012.7mb 73f 87f
1:24 9 16 mph 1012.8mb 73f 86f
1:18 10 15 mph 1012.9mb 73f 87f
1:12 11 18 mph 1012.9mb 73f 86f
1:06 8 16 mph 1013mb 73f 86f
1:00 10 16 mph 1013mb 73f 86f
12:54 11 16 mph 1013mb 73f 86f
12:48 9 17 mph 1013.1mb 73f 86f
12:42 9 14 mph 1013.3mb 73f 85f
12:36 10 13 mph 1013.3mb 73f 85f
12:30 7 17 mph 1013.3mb 73f 85f
12:24 11 15 mph 1013.4mb 73f 84f
12:18 9 15 mph 1013.5mb 73f 84f
12:12 11 17 mph 1013.7mb 72f 84f
12:06 11 16 mph 1013.8mb 72f 84f
12:00 13 18 mph 1013.9mb 72f 83f
11:54 9 16 mph 1014mb 72f 83f
11:48 10 16 mph 1014mb 72f 82f
11:42 11 18 mph 1014.1mb 72f 82f
11:36 10 15 mph 1014.2mb 72f 83f
11:30 9 17 mph 1014.2mb 72f 82f
11:24 9 15 mph 1014.3mb 72f 83f
11:18 7 14 mph 1014.4mb 72f 83f
11:12 13 17 mph 1014.4mb 72f 82f
11:06 10 15 mph 1014.6mb 72f 81f
11:00 10 15 mph 1014.7mb 72f 80f
10:54 9 14 mph 1014.7mb 72f 81f
10:48 9 14 mph 1014.8mb 72f 80f
10:42 9 14 mph 1014.8mb 72f 80f
10:36 11 16 mph 1014.9mb 72f 79f
10:30 9 14 mph 1014.9mb 72f 80f
10:24 9 13 mph 1015mb 72f 79f
10:18 7 10 mph 1015.1mb 72f 79f
10:12 8 11 mph 1015.2mb 72f 79f
10:06 8 14 mph 1015.2mb 72f 79f
10:00 9 13 mph 1015.3mb 72f 78f
9:54 9 14 mph 1015.3mb 72f 78f
9:48 8 11 mph 1015.4mb 72f 78f
9:42 6 9 mph 1015.5mb 72f 77f
9:36 5 8 mph 1015.6mb 72f 77f
9:30 6 13 mph 1015.6mb 72f 77f
9:24 7 10 mph 1015.5mb 72f 77f
9:18 5 11 mph 1015.5mb 72f 76f
9:12 10 14 mph 1015.6mb 72f 75f
9:06 9 11 mph 1015.6mb 72f 75f
9:00 8 11 mph 1015.5mb 72f 75f
8:54 7 11 mph 1015.5mb 72f 75f
8:48 8 10 mph 1015.6mb 72f 74f
8:42 9 11 mph 1015.7mb 72f 74f
8:36 8 9 mph 1015.6mb 72f 73f
8:30 6 9 mph 1015.7mb 72f 73f
8:24 8 10 mph 1015.8mb 72f 72f
8:18 9 10 mph 1015.8mb 72f 71f
8:12 9 11 mph 1015.8mb 72f 70f
8:06 8 9 mph 1015.8mb 72f 70f
8:00 9 11 mph 1015.7mb 72f 71f
7:54 7 9 mph 1015.7mb 72f 70f
7:48 5 6 mph 1015.6mb 72f 70f
7:42 2 3 mph 1015.6mb 72f 70f
7:36 2 3 mph 1015.6mb 72f 70f
7:30 2 3 mph 1015.6mb 72f 69f
7:24 2 6 mph 1015.6mb 72f 69f
7:18 5 6 mph 1015.6mb 72f 68f
7:12 3 5 mph 1015.6mb 72f 68f
7:06 3 6 mph 1015.5mb 72f 67f
7:00 5
mph
1015.5mb 72f 67f
6:54 3 5 mph 1015.5mb 72f 67f
6:48 5
mph
1015.5mb 72f 67f
6:42 2 5 mph 1015.5mb 72f 67f
6:36 3 5 mph 1015.4mb 72f 66f
6:30 2 5 mph 1015.4mb 72f 66f
6:24 3 5 mph 1015.4mb 72f 66f
6:18 3 5 mph 1015.5mb 72f 66f
6:12 3 6 mph 1015.3mb 72f 66f
6:06 5 6 mph 1015.3mb 72f 65f
6:00 5
mph
1015.3mb 72f 66f
5:54 3 5 mph 1015.3mb 72f 66f
5:48 3 5 mph 1015.4mb 72f 66f
5:42 3 5 mph 1015.4mb 72f 66f
5:36 3 6 mph 1015.5mb 73f 66f
5:30 6
mph
1015.4mb 73f 66f
5:24 5
mph
1015.4mb 73f 66f
5:18 3 5 mph 1015.4mb 73f 66f
5:12 3
mph
1015.5mb 73f 66f
5:06 2 3 mph 1015.5mb 73f 66f
5:00 3 5 mph 1015.5mb 73f 66f
4:54 2 3 mph 1015.5mb 73f 66f
4:48 3 5 mph 1015.5mb 73f 66f
4:42 3
mph
1015.5mb 73f 66f
4:36 3
mph
1015.5mb 73f 66f
4:30 2 3 mph 1015.5mb 73f 66f
4:24 3 5 mph 1015.5mb 73f 66f
4:18 2 3 mph 1015.5mb 73f 66f
4:12 5
mph
1015.6mb 73f 66f
4:06 5 6 mph 1015.6mb 73f 66f
4:00 3 5 mph 1015.6mb 73f 66f
3:54 2 3 mph 1015.7mb 73f 66f
3:48 3 5 mph 1015.7mb 73f 66f
3:42 5 6 mph 1015.7mb 73f 66f
3:36 5 6 mph 1015.8mb 73f 66f
3:30 3 5 mph 1015.9mb 73f 66f
3:24 3
mph
1015.9mb 73f 66f
3:18 3
mph
1016mb 73f 66f
3:12 3 5 mph 1016mb 73f 66f
3:06 5 6 mph 1015.9mb 73f 66f
3:00 3 5 mph 1016mb 73f 67f
2:54  -  3 mph 1016mb 73f 67f
2:48 3 5 mph 1016mb 73f 66f
2:42 3 5 mph 1015.9mb 73f 66f
2:36 5 6 mph 1016mb 73f 66f
2:30 3 5 mph 1016.2mb 73f 67f
2:24 3 5 mph 1016.3mb 73f 67f
2:18 3 5 mph 1016.4mb 73f 67f
2:12 1 3 mph 1016.4mb 73f 67f
2:06 2 3 mph 1016.4mb 73f 67f
2:00 3
mph
1016.4mb 73f 67f
1:54 3
mph
1016.5mb 73f 66f
1:48 2 3 mph 1016.6mb 73f 67f
1:42 2
mph
1016.7mb 73f 67f
1:36 2 3 mph 1016.9mb 73f 67f
1:30 3
mph
1016.9mb 73f 67f
1:24 3 6 mph 1016.9mb 73f 67f
1:18 5 6 mph 1017mb 73f 67f
1:12 5
mph
1017.1mb 73f 67f
1:06 3 5 mph 1017.3mb 73f 67f
1:00 3 5 mph 1017.4mb 73f 67f
12:54 3 5 mph 1017.4mb 73f 67f
12:48 5 6 mph 1017.4mb 73f 67f
12:42 5 6 mph 1017.4mb 73f 67f
12:36 3 5 mph 1017.4mb 73f 67f
12:30 5
mph
1017.4mb 73f 67f
12:24 5 7 mph 1017.5mb 73f 68f
12:18 6 7 mph 1017.5mb 73f 68f
12:12 6 7 mph 1017.5mb 73f 68f
12:06 5 6 mph 1017.5mb 73f 68f
12:00 5 6 mph 1017.6mb 73f 68f
Di 08/26 11:54 3 6 mph 1017.6mb 73f 68f
11:48 5 6 mph 1017.8mb 73f 68f
11:42 3 5 mph 1017.9mb 73f 68f
11:36 5 7 mph 1017.8mb 72f 68f
11:30 6 8 mph 1017.8mb 72f 68f
11:24 6 9 mph 1017.8mb 72f 69f
11:18 6 9 mph 1018mb 72f 69f
11:12 6 8 mph 1018.1mb 72f 69f
11:06 3 6 mph 1018.1mb 72f 69f
11:00 3 7 mph 1018.1mb 72f 69f
10:54 5 9 mph 1018.1mb 72f 69f
10:48 6 9 mph 1018.1mb 72f 69f
10:42 6 7 mph 1018.3mb 72f 69f
10:36 3 6 mph 1018.3mb 72f 69f
10:30 6 7 mph 1018.3mb 72f 69f
10:24 5 7 mph 1018.4mb 72f 69f
10:18 6 8 mph 1018.4mb 72f 69f
10:12 5 7 mph 1018.5mb 72f 70f
10:06 6 9 mph 1018.4mb 72f 70f
10:00 5 7 mph 1018.3mb 72f 70f
9:54 6 8 mph 1018.4mb 72f 70f
9:48 6 8 mph 1018.2mb 72f 70f
9:42 5 8 mph 1018.3mb 72f 70f
9:36 6 9 mph 1018.3mb 72f 70f
9:30 7 10 mph 1018.3mb 72f 70f
9:24 7 11 mph 1018.3mb 72f 71f
9:18 7 11 mph 1018.4mb 71f 71f
9:12 7 11 mph 1018.4mb 71f 71f
9:06 9 11 mph 1018.3mb 71f 71f
9:00 9 11 mph 1018.3mb 71f 71f
8:54 9 13 mph 1018.1mb 71f 71f
8:48 7 10 mph 1018.1mb 71f 71f
8:42 6 10 mph 1018.1mb 71f 71f
8:36 9 11 mph 1018mb 71f 71f
8:30 7 9 mph 1018mb 71f 72f
8:24 7 9 mph 1017.9mb 71f 72f
8:18 7 11 mph 1017.9mb 71f 72f
8:12 9 13 mph 1017.8mb 71f 72f
8:06 8 11 mph 1017.8mb 71f 72f
8:00 9 11 mph 1017.7mb 71f 72f
7:54 9 13 mph 1017.7mb 72f 72f
7:48 11 13 mph 1017.7mb 72f 72f
7:42 9 14 mph 1017.7mb 72f 72f
7:36 10 14 mph 1017.7mb 72f 72f
7:30 10 14 mph 1017.7mb 72f 72f
7:24 11 15 mph 1017.6mb 72f 72f
7:18 13 16 mph 1017.6mb 72f 72f
7:12 13 16 mph 1017.7mb 72f 72f
7:06 13 16 mph 1017.6mb 72f 72f
7:00 10 15 mph 1017.6mb 72f 73f
6:54 14 16 mph 1017.5mb 72f 73f
6:48 13 16 mph 1017.5mb 72f 73f
6:42 13 16 mph 1017.4mb 72f 73f
6:36 13 16 mph 1017.4mb 72f 73f
6:30 14 16 mph 1017.5mb 72f 73f
6:24 15 17 mph 1017.5mb 72f 73f
6:18 13 16 mph 1017.5mb 73f 73f
6:12 14 18 mph 1017.5mb 73f 73f
6:06 16 20 mph 1017.5mb 73f 73f
6:00 17 22 mph 1017.5mb 73f 73f
5:54 15 21 mph 1017.6mb 73f 73f
5:48 15 20 mph 1017.6mb 73f 73f
5:42 16 20 mph 1017.7mb 73f 73f
5:36 18 22 mph 1017.8mb 73f 73f
5:30 17 22 mph 1017.8mb 73f 73f
5:24 17 22 mph 1017.8mb 73f 73f
5:18 17 22 mph 1017.9mb 73f 73f
5:12 16 22 mph 1018.1mb 73f 74f
5:06 16 22 mph 1018.2mb 73f 74f
5:00 15 22 mph 1018.2mb 73f 74f
4:54 17 21 mph 1018.2mb 73f 74f
4:48 20 23 mph 1018.2mb 73f 73f
4:42 18 22 mph 1018.2mb 73f 74f
4:36 16 21 mph 1018.3mb 73f 74f
4:30 16 20 mph 1018.4mb 73f 74f
4:24 17 22 mph 1018.5mb 73f 73f
4:18 17 21 mph 1018.6mb 73f 74f
4:12 16 22 mph 1018.6mb 73f 74f
4:06 17 21 mph 1018.7mb 73f 74f
4:00 15 20 mph 1018.7mb 73f 74f
3:54 14 20 mph 1018.7mb 73f 74f
3:48 17 21 mph 1018.8mb 73f 74f
3:42 16 21 mph 1018.9mb 73f 74f
3:36 17 21 mph 1018.9mb 73f 74f
3:30 18 21 mph 1019mb 73f 75f
3:24 17 22 mph 1019mb 73f 75f
3:18 18 21 mph 1019mb 73f 75f
3:12 16 21 mph 1019mb 73f 76f
3:06 16 21 mph 1019.1mb 73f 76f
3:00 20 21 mph 1019.1mb 73f 76f
2:54 17 21 mph 1019.1mb 73f 77f
2:48 18 22 mph 1019.1mb 73f 77f
2:42 17 22 mph 1019.1mb 73f 78f
2:36 17 21 mph 1019.2mb 73f 78f
2:30 16 21 mph 1019.2mb 73f 78f
2:24 17 20 mph 1019.3mb 73f 78f
2:18 17 20 mph 1019.3mb 73f 78f
2:12 17 18 mph 1019.4mb 73f 78f
2:06 16 18 mph 1019.4mb 73f 78f
2:00 11 17 mph 1019.4mb 73f 78f
1:54 15 17 mph 1019.4mb 73f 78f
1:48 13 16 mph 1019.4mb 72f 78f
1:42 14 16 mph 1019.4mb 72f 78f
1:36 14 16 mph 1019.4mb 72f 78f
1:30 14 17 mph 1019.5mb 72f 78f
1:24 14 16 mph 1019.5mb 72f 77f
1:18 13 15 mph 1019.6mb 72f 77f
1:12 13 15 mph 1019.7mb 72f 77f
1:06 14 15 mph 1019.9mb 72f 76f
1:00 13 15 mph 1019.9mb 72f 77f
12:54 10 13 mph 1020mb 72f 77f
12:48 10 11 mph 1020mb 72f 77f
12:42 9 11 mph 1020mb 72f 76f
12:36 10 13 mph 1020mb 72f 75f
12:30 10 11 mph 1020.1mb 72f 75f
12:24 10 13 mph 1020.2mb 72f 75f
12:18 10 13 mph 1020.2mb 72f 75f
12:12 11
mph
1020.2mb 71f 75f
12:06 11 13 mph 1020.3mb 71f 75f
12:00 10 11 mph 1020.3mb 71f 75f
11:54 9 13 mph 1020.3mb 71f 75f
11:48 11 13 mph 1020.3mb 71f 74f
11:42 11 13 mph 1020.3mb 71f 74f
11:36 11 13 mph 1020.4mb 71f 74f
11:30 9 11 mph 1020.5mb 71f 74f
11:24 9 11 mph 1020.5mb 71f 74f
11:18 9 10 mph 1020.6mb 71f 74f
11:12 9 11 mph 1020.6mb 71f 74f
11:06 10 11 mph 1020.7mb 71f 74f
11:00 7 9 mph 1020.7mb 71f 74f
10:54 6 9 mph 1020.8mb 71f 73f
10:48 7 9 mph 1020.8mb 71f 73f
10:42 7 8 mph 1020.8mb 71f 72f
10:36 8 9 mph 1020.8mb 71f 72f
10:30 8 10 mph 1020.8mb 71f 72f
10:24 9 11 mph 1020.9mb 71f 72f
10:18 8 11 mph 1020.9mb 71f 72f
10:12 8 11 mph 1020.9mb 71f 72f
10:06 8 10 mph 1021mb 71f 71f
10:00 8 10 mph 1020.9mb 71f 71f
9:54 8 9 mph 1020.9mb 71f 71f
9:48 9 10 mph 1020.9mb 71f 71f
9:42 9 10 mph 1020.9mb 71f 72f
9:36 7 9 mph 1020.9mb 71f 73f
9:30 3 6 mph 1020.9mb 71f 74f
9:24 3 7 mph 1020.9mb 71f 74f
9:18 5 7 mph 1021mb 71f 74f
9:12 5 8 mph 1021mb 71f 73f
9:06 5 8 mph 1021.1mb 71f 73f
9:00 7 9 mph 1021.1mb 71f 72f
8:54 5 7 mph 1021.1mb 71f 73f
8:48 3 6 mph 1021.1mb 71f 72f
8:42 5 7 mph 1021.1mb 71f 72f
8:36 6 8 mph 1021.1mb 71f 72f
8:30 3 7 mph 1021.1mb 71f 71f
8:24 6 8 mph 1021.1mb 71f 71f
8:18 6 9 mph 1021.1mb 71f 71f
8:12 7 9 mph 1021.1mb 71f 70f
8:06 6 8 mph 1021.1mb 71f 70f
8:00 7 8 mph 1021mb 71f 69f
7:54 6 8 mph 1021mb 71f 69f
7:48 5 8 mph 1021mb 71f 68f
7:42 6 8 mph 1020.9mb 71f 68f
7:36 6 8 mph 1020.8mb 71f 68f
7:30 3 6 mph 1020.8mb 71f 68f
7:24 5 8 mph 1020.8mb 71f 68f
7:18 5 7 mph 1020.8mb 71f 67f
7:12 5 7 mph 1020.7mb 71f 67f
7:06 5 8 mph 1020.7mb 71f 66f
7:00 5 7 mph 1020.7mb 71f 66f
6:54 5 8 mph 1020.7mb 71f 66f
6:48 6 8 mph 1020.6mb 71f 66f
6:42 6 8 mph 1020.6mb 71f 66f
6:36 5 6 mph 1020.5mb 71f 66f
6:30 5 6 mph 1020.5mb 71f 66f
6:24 3 6 mph 1020.5mb 71f 65f
6:18 3 6 mph 1020.4mb 71f 65f
6:12 3 7 mph 1020.3mb 71f 65f
6:06 5 6 mph 1020.3mb 71f 65f
6:00 3 6 mph 1020.2mb 71f 65f
5:54 5 6 mph 1020.2mb 71f 65f
5:48 5 6 mph 1020.2mb 71f 65f
5:42 3 5 mph 1020.1mb 71f 65f
5:36 3 5 mph 1020.1mb 71f 65f
5:30 2 3 mph 1020mb 71f 65f
5:24 2 3 mph 1020mb 71f 65f
5:18 2 3 mph 1020mb 71f 65f
5:12 2 3 mph 1020mb 71f 65f
5:06 2 3 mph 1020mb 71f 65f
5:00 3 5 mph 1020mb 71f 65f
4:54 3 6 mph 1019.9mb 71f 65f
4:48 3
mph
1020mb 72f 66f
4:42 3 5 mph 1019.9mb 72f 66f
4:36 3 5 mph 1019.8mb 72f 66f
4:30 3 5 mph 1019.8mb 72f 66f
4:24 5 6 mph 1019.7mb 72f 66f
4:18 3 5 mph 1019.8mb 72f 66f
4:12 3 6 mph 1019.8mb 72f 66f
4:06 5 6 mph 1019.8mb 72f 66f
4:00 2 3 mph 1019.8mb 72f 66f
3:54 2 3 mph 1019.8mb 72f 66f
3:48 2 3 mph 1019.9mb 72f 66f
3:42 2 3 mph 1019.9mb 72f 66f
3:36 3 6 mph 1019.9mb 72f 66f
3:30 3 5 mph 1019.9mb 72f 66f
3:24 5 6 mph 1019.9mb 72f 66f
3:18 3 5 mph 1019.9mb 72f 66f
3:12 3 5 mph 1020mb 72f 66f
3:06 3
mph
1019.9mb 72f 66f
3:00 2
mph
1019.8mb 72f 66f
2:54 1 2 mph 1019.8mb 72f 66f
2:48 2
mph
1019.7mb 72f 66f
2:42 2 3 mph 1019.8mb 72f 66f
2:36  -  2 mph 1019.7mb 72f 67f
2:30  -  2 mph 1019.8mb 72f 67f
2:24  -  2 mph 1019.8mb 72f 67f
2:18 1 3 mph 1019.9mb 72f 67f
2:12 2 5 mph 1020mb 72f 67f
2:06 3 5 mph 1020mb 72f 67f
2:00 3 6 mph 1019.9mb 72f 67f
1:54 3 5 mph 1019.9mb 72f 67f
1:48 3 5 mph 1020mb 72f 67f
1:42 1 2 mph 1019.9mb 72f 67f
1:36 2 5 mph 1020mb 72f 67f
1:30 3 5 mph 1020mb 72f 67f
1:24 2 5 mph 1020.1mb 72f 67f
1:18 2 5 mph 1020.1mb 72f 67f
1:12 5 6 mph 1020.1mb 72f 67f
1:06 5 6 mph 1020.2mb 72f 67f
1:00 5 6 mph 1020.2mb 72f 68f
12:54 3 6 mph 1020.2mb 72f 68f
12:48 5 6 mph 1020.2mb 72f 68f
12:42 3 5 mph 1020.2mb 72f 68f
12:36 3 5 mph 1020.2mb 72f 68f
12:30 3 5 mph 1020.2mb 72f 68f
12:24 2 6 mph 1020.2mb 72f 68f
12:18 5 6 mph 1020.2mb 72f 68f
12:12  -  mph 1020.1mb 72f 68f
12:06  -  mph 1020.2mb 72f 68f
12:00  -  mph 1020.3mb - -
Mo 08/25 11:54 5 8 mph 1020.3mb - -
11:48 3 7 mph 1020.2mb - -
11:42 3 8 mph 1020.2mb - -
11:36 5 7 mph 1020.2mb - -
11:30 5 7 mph 1020.2mb - -
11:24  -  mph 1020.2mb 71f 69f
11:18  -  mph 1020.2mb 71f 69f
11:12  -  mph - - 69f
11:06  -  mph - - 69f
11:00 5 9 mph - - -
10:54 6 9 mph 1020mb - -
10:48  -  mph 1020mb - 69f
10:42  -  mph 1020mb - 69f
10:36  -  mph 1020.1mb - 69f
10:30 7 10 mph 1020.1mb 71f 69f
10:24 8 10 mph 1020.2mb 71f 69f
10:18 8 9 mph 1020.1mb 71f 69f
10:12 5 7 mph 1020.1mb 71f 69f
10:06 5 7 mph 1020.1mb 71f 69f
10:00 6 8 mph 1020.1mb 71f 69f
9:54 6 8 mph 1020mb 71f 70f
9:48 6 7 mph 1020mb 71f 70f
9:42 6 8 mph 1020mb 71f 70f
9:36 7 10 mph 1020mb 71f 70f
9:30 7 10 mph 1020mb 71f 70f
9:24 5 8 mph 1020.1mb 71f 70f
9:18 7 8 mph 1020.1mb 71f 70f
9:12 7 10 mph 1020mb 71f 70f
9:06 8 11 mph 1020mb 71f 70f
9:00 7 10 mph 1020mb 71f 71f
8:54 9 11 mph 1020mb 71f 71f
8:48 10 13 mph 1020mb 71f 71f
8:42 9 11 mph 1019.8mb 70f 71f
8:36 9 11 mph 1019.8mb 70f 71f
8:30 9 11 mph 1019.9mb 70f 72f
8:24 9 11 mph 1019.9mb 70f 72f
8:18 8 10 mph 1019.8mb 70f 72f
8:12 8 11 mph 1019.8mb 70f 72f
8:06 8 10 mph 1019.8mb 70f 72f
8:00 8 11 mph 1019.9mb 70f 72f
7:54 9 13 mph 1019.8mb 70f 72f
7:48 11 14 mph 1019.7mb 70f 72f
7:42 10 16 mph 1019.7mb 70f 73f
7:36 13 16 mph 1019.6mb 70f 73f
7:30 9 14 mph 1019.6mb 70f 73f
7:24 11 15 mph 1019.5mb 70f 73f
7:18 11 15 mph 1019.4mb 70f 73f
7:12 10 14 mph 1019.4mb 70f 74f
7:06 10 11 mph 1019.3mb 70f 74f
7:00 9 10 mph 1019.3mb 70f 75f
6:54 9 10 mph 1019.2mb 70f 75f
6:48 9 13 mph 1019.1mb 70f 76f
6:42 9 14 mph 1019.1mb 70f 76f
6:36 8 13 mph 1019mb 70f 77f
6:30 9 14 mph 1019mb 70f 77f
6:24 8 13 mph 1018.9mb 70f 77f
6:18 11 16 mph 1018.8mb 70f 76f
6:12 14 16 mph 1018.7mb 70f 77f
6:06 13 16 mph 1018.7mb 71f 77f
6:00 10 13 mph 1018.6mb 71f 79f
5:54 10 14 mph 1018.7mb 71f 79f
5:48 9 13 mph 1018.6mb 71f 80f
5:42 9 15 mph 1018.5mb 71f 79f
5:36 14 16 mph 1018.6mb 71f 78f
5:30 13 17 mph 1018.5mb 71f 79f
5:24 13 20 mph 1018.5mb 71f 79f
5:18 16 21 mph 1018.5mb 71f 79f
5:12 14 18 mph 1018.5mb 71f 80f
5:06 14 18 mph 1018.4mb 71f 80f
5:00 16 18 mph 1018.3mb 71f 80f
4:54 14 17 mph 1018.3mb 71f 80f
4:48 10 16 mph 1018.2mb 71f 81f
4:42 13 16 mph 1018.2mb 71f 81f
4:36 11 16 mph 1018.3mb 71f 80f
4:30 14 20 mph 1018.3mb 71f 82f
4:24 14 18 mph 1018.4mb 71f 81f
4:18 9 14 mph 1018.3mb 71f 83f
4:12 10 14 mph 1018.3mb 71f 83f
4:06 5 7 mph 1018.3mb 71f 85f
4:00 7 10 mph 1018.3mb 71f 86f
3:54 5 7 mph 1018.3mb 71f 87f
3:48 1 5 mph 1018.3mb 71f 86f
3:42 5 7 mph 1018.3mb 71f 86f
3:36 6 10 mph 1018.4mb 71f 85f
3:30 8 11 mph 1018.4mb 71f 85f
3:24 8 11 mph 1018.4mb 71f 85f
3:18 5 8 mph 1018.4mb 71f 86f
3:12 2 6 mph 1018.5mb 71f 86f
3:06 3 5 mph 1018.6mb 71f 85f
3:00 6 7 mph 1018.6mb 71f 85f
2:54 7 10 mph 1018.7mb 71f 85f
2:48 2 7 mph 1018.7mb 71f 85f
2:42 6 14 mph 1018.8mb 71f 86f
2:36 5 8 mph 1018.8mb 71f 86f
2:30 2 7 mph 1018.8mb 71f 87f
2:24 6 13 mph 1018.8mb 71f 86f
2:18 11 16 mph 1018.9mb 71f 85f
2:12 2 9 mph 1018.9mb 71f 85f
2:06 7 11 mph 1019mb 70f 85f
2:00 7 9 mph 1019mb 70f 84f
1:54 8 10 mph 1019.1mb 70f 84f
1:48 2 10 mph 1019.2mb 70f 84f
1:42 8 11 mph 1019.2mb 70f 84f
1:36 8 14 mph 1019.2mb 70f 84f
1:30 9 13 mph 1019.2mb 70f 84f
1:24 7 10 mph 1019.2mb 70f 84f
1:18 6 9 mph 1019.2mb 70f 83f
1:12 7 9 mph 1019.3mb 70f 83f
1:06 5 10 mph 1019.3mb 70f 83f
1:00 9 11 mph 1019.4mb 70f 83f
12:54 7 10 mph 1019.4mb 70f 83f
12:48 8 11 mph 1019.5mb 70f 83f
12:42 2 11 mph 1019.6mb 70f 82f
12:36 3 9 mph 1019.7mb 70f 82f
12:30 5 7 mph 1019.7mb 70f 82f
12:24 5 8 mph 1019.8mb 70f 82f
12:18 6 8 mph 1019.9mb 70f 82f
12:12 5 8 mph 1020mb 70f 82f
12:06 6 9 mph 1019.9mb 70f 82f
12:00 5 7 mph 1019.9mb 70f 81f
11:54 6 7 mph 1020.1mb 70f 81f
11:48 5 6 mph 1020.1mb 70f 81f
11:42 7 8 mph 1020.1mb 70f 81f
11:36 3 9 mph 1020.1mb 70f 80f
11:30 6 9 mph 1020.2mb 70f 80f
11:24 7 10 mph 1020.2mb 70f 80f
11:18 8 9 mph 1020.1mb 70f 80f
11:12 8 10 mph 1020.2mb 70f 80f
11:06 6 11 mph 1020.2mb 70f 80f
11:00 9 11 mph 1020.2mb 70f 80f
10:54 9 11 mph 1020.3mb 70f 80f
10:48 8 10 mph 1020.3mb 70f 79f
10:42 6 11 mph 1020.2mb 70f 79f
10:36 9 11 mph 1020.2mb 70f 79f
10:30 8 11 mph 1020.3mb 70f 79f
10:24 6 8 mph 1020.3mb 70f 78f
10:18 6 9 mph 1020.3mb 70f 78f
10:12 3 7 mph 1020.3mb 70f 78f
10:06 7 10 mph 1020.2mb 70f 78f
10:00 6 8 mph 1020.2mb 70f 78f
9:54 5 8 mph 1020.2mb 70f 79f
9:48 6 9 mph 1020.2mb 70f 78f
9:42 5 7 mph 1020.1mb 70f 79f
9:36 5 7 mph 1020.1mb 70f 80f
9:30 3 7 mph 1020mb 70f 79f
9:24 6 7 mph 1020mb 70f 78f
9:18 5 7 mph 1019.9mb 70f 76f
9:12 5 8 mph 1019.9mb 70f 76f
9:06 7 8 mph 1019.9mb 70f 75f
9:00 7 9 mph 1019.9mb 70f 74f
8:54 9 10 mph 1019.8mb 70f 74f
8:48 8 11 mph 1019.7mb 70f 74f
8:42 8 13 mph 1019.8mb 70f 74f
8:36 9 11 mph 1019.8mb 70f 73f
8:30 3 6 mph 1019.8mb 70f 72f
8:24 2 5 mph 1019.8mb 70f 71f
8:18  -  2 mph 1019.8mb 70f 70f
8:12  -  3 mph 1019.8mb 70f 70f
8:06 1 3 mph 1019.8mb 70f 69f
8:00 1 2 mph 1019.8mb 70f 69f
7:54  -  2 mph 1019.8mb 70f 69f
7:48 1 2 mph 1019.7mb 70f 68f
7:42  -  1 mph 1019.7mb 70f 68f
7:36  -  2 mph 1019.6mb 70f 68f
7:30  -  2 mph 1019.6mb 70f 67f
7:24  -  2 mph 1019.7mb 70f 67f
7:18 2 3 mph 1019.6mb 70f 67f
7:12 3
mph
1019.5mb 70f 67f
7:06 3
mph
1019.5mb 70f 66f
7:00 2 3 mph 1019.5mb 70f 67f
6:54 2 3 mph 1019.4mb 70f 67f
6:48 3 7 mph 1019.2mb 70f 68f
6:42 6 9 mph 1019.1mb 70f 68f
6:36 6 9 mph 1019.1mb 70f 67f
6:30 6 8 mph 1019.2mb 70f 67f
6:24 5 8 mph 1019.3mb 70f 66f
6:18 1 2 mph 1019.3mb 70f 65f
6:12 1 5 mph 1019.3mb 70f 66f
6:06 1 6 mph 1019.3mb 70f 66f
6:00 6 8 mph 1019.2mb 70f 66f
5:54 2 5 mph 1019.1mb 70f 66f
5:48 3 5 mph 1019.1mb 70f 66f
5:42 3 5 mph 1019.1mb 70f 66f
5:36 2 3 mph 1019mb 70f 66f
5:30 2 3 mph 1019mb 70f 65f
5:24 1 3 mph 1018.9mb 70f 65f
5:18 1 2 mph 1018.9mb 70f 65f
5:12  -  1 mph 1018.9mb 70f 65f
5:06  -  2 mph 1018.9mb 70f 65f
5:00  -  2 mph 1018.8mb 70f 65f
4:54 1 2 mph 1018.7mb 70f 66f
4:48 2 3 mph 1018.8mb 70f 66f
4:42 2 3 mph 1018.8mb 70f 66f
4:36 3 5 mph 1018.8mb 70f 66f
4:30 5 6 mph 1018.7mb 70f 66f
4:24 6 7 mph 1018.8mb 70f 66f
4:18 5 7 mph 1018.8mb 70f 65f
4:12 6 8 mph 1018.8mb 70f 65f
4:06 3 5 mph 1018.8mb 70f 65f
4:00 2 5 mph 1018.9mb 70f 65f
3:54 1 3 mph 1019mb 70f 65f
3:48 2 5 mph 1019mb 70f 65f
3:42 2 5 mph 1019mb 70f 64f
3:36 3
mph
1019mb 70f 64f
3:30 2 3 mph 1019mb 70f 64f
3:24  -  3 mph 1018.9mb 70f 65f
3:18 3 5 mph 1018.9mb 70f 65f
3:12 5 6 mph 1018.9mb 70f 65f
3:06 3 5 mph 1018.9mb 70f 64f
3:00 3 5 mph 1018.9mb 70f 64f
2:54 2 5 mph 1018.9mb 70f 64f
2:48 2 3 mph 1019mb 70f 65f
2:42 2 5 mph 1019.1mb 70f 65f
2:36 3 6 mph 1019.2mb 70f 65f
2:30 3 6 mph 1019.2mb 70f 65f
2:24 2 5 mph 1019.2mb 70f 65f
2:18 2 5 mph 1019.2mb 70f 65f
2:12 3 6 mph 1019.3mb 70f 65f
2:06 3 7 mph 1019.2mb 70f 66f
2:00  -  2 mph 1019.2mb 70f 66f
1:54 2
mph
1019.3mb 70f 65f
1:48 1 5 mph 1019.3mb 70f 66f
1:42 2 3 mph 1019.3mb 70f 66f
1:36 3 6 mph 1019.4mb 70f 66f
1:30  -  1 mph 1019.4mb 70f 66f
1:24 1 2 mph 1019.4mb 70f 66f
1:18 1 2 mph 1019.4mb 70f 66f
1:12 1 2 mph 1019.4mb 70f 66f
1:06 1 2 mph 1019.4mb 70f 66f
1:00  -  3 mph 1019.4mb 70f 66f
12:54 1 2 mph 1019.4mb 70f 66f
12:48  -  2 mph 1019.5mb 70f 66f
12:42  -  mph 1019.5mb 70f 66f
12:36  -  1 mph 1019.5mb 70f 66f
12:30  -  2 mph 1019.5mb 70f 66f
12:24 2 3 mph 1019.6mb 70f 66f
12:18 2 3 mph 1019.6mb 71f 66f
12:12 3 5 mph 1019.7mb 71f 66f
12:06 2 6 mph 1019.6mb 71f 67f
12:00 3 6 mph 1019.6mb 71f 67f
So 08/24 11:54 2 5 mph 1019.6mb 70f 67f
11:48 2 5 mph 1019.6mb 70f 67f
11:42 2 5 mph 1019.6mb 70f 67f
11:36 2 3 mph 1019.6mb 70f 67f
11:30 2 5 mph 1019.5mb 71f 67f
11:24 1 5 mph 1019.5mb 71f 67f
11:18 2 5 mph 1019.5mb 71f 67f
11:12 2 3 mph 1019.4mb 71f 67f
11:06 3
mph
1019.4mb 70f 67f
11:00 2 3 mph 1019.4mb 70f 67f
10:54 2 3 mph 1019.5mb 70f 68f
10:48 2 5 mph 1019.5mb 70f 68f
10:42 3 6 mph 1019.5mb 70f 68f
10:36 3 6 mph 1019.5mb 70f 68f
10:30 3 6 mph 1019.5mb 70f 68f
10:24 3 5 mph 1019.6mb 70f 68f
10:18 2 5 mph 1019.6mb 70f 68f
10:12 3 5 mph 1019.7mb 70f 68f
10:06 3 6 mph 1019.8mb 70f 69f
10:00 5 7 mph 1019.8mb 70f 69f
9:54 5 8 mph 1019.8mb 70f 69f
9:48 5 8 mph 1019.7mb 70f 69f
9:42 3 6 mph 1019.8mb 70f 69f
9:36 3 7 mph 1019.8mb 70f 69f
9:30 6 8 mph 1019.8mb 70f 69f
9:24 5 10 mph 1019.8mb 70f 69f
9:18 7 9 mph 1019.7mb 70f 69f
9:12 6 9 mph 1019.7mb 70f 70f
9:06 6 7 mph 1019.7mb 70f 70f
9:00 7 8 mph 1019.6mb 70f 70f
8:54 6 8 mph 1019.5mb 70f 70f
8:48 6 8 mph 1019.5mb 70f 71f
8:42 5 7 mph 1019.5mb 70f 71f
8:36 5 8 mph 1019.5mb 70f 71f
8:30 7 8 mph 1019.5mb 70f 71f
8:24 6 7 mph 1019.4mb 70f 72f
8:18 5 9 mph 1019.3mb 70f 72f
8:12 6 11 mph 1019.3mb 70f 72f
8:06 8 10 mph 1019.2mb 70f 72f
8:00 6 11 mph 1019.1mb 70f 73f
7:54 6 8 mph 1019.1mb 70f 74f
7:48 6 7 mph 1019mb 70f 74f
7:42 5 6 mph 1019mb 70f 74f
7:36 5 6 mph 1019mb 70f 74f
7:30 6 7 mph 1018.9mb 70f 74f
7:24 5 6 mph 1018.8mb 70f 75f
7:18 5 6 mph 1018.9mb 70f 76f
7:12 5 8 mph 1018.9mb 70f 76f
7:06 6 7 mph 1018.9mb 70f 76f
7:00 5 8 mph 1018.9mb 70f 76f
6:54 5 7 mph 1018.9mb 70f 77f
6:48 6 11 mph 1019mb 70f 77f
6:42 8 10 mph 1018.9mb 70f 77f
6:36 9 13 mph 1018.9mb 70f 77f
6:30 10 14 mph 1018.8mb 70f 77f
6:24 11 15 mph 1018.8mb 70f 77f
6:18 9 15 mph 1018.7mb 70f 77f
6:12 13 15 mph 1018.7mb 70f 77f
6:06 7 13 mph 1018.7mb 70f 77f
6:00 9 13 mph 1018.6mb 70f 77f
5:54 10 13 mph 1018.6mb 70f 77f
5:48 11 14 mph 1018.7mb 70f 77f
5:42 10 16 mph 1018.6mb 70f 77f
5:36 9 14 mph 1018.6mb 70f 77f
5:30 10 14 mph 1018.6mb 70f 77f
5:24 9 13 mph 1018.6mb 70f 77f
5:18 11 15 mph 1018.6mb 70f 77f
5:12 9 13 mph 1018.6mb 70f 77f
5:06 11 14 mph 1018.6mb 70f 77f
5:00 13 15 mph 1018.6mb 70f 77f
4:54 9 16 mph 1018.6mb 70f 77f
4:48 8 16 mph 1018.6mb 70f 77f
4:42 9 14 mph 1018.6mb 70f 77f
4:36 9 11 mph 1018.6mb 70f 77f
4:30 11 15 mph 1018.5mb 70f 77f
4:24 6 11 mph 1018.6mb 70f 77f
4:18 6 8 mph 1018.8mb 70f 77f
4:12 8 11 mph 1018.8mb 70f 77f
4:06 8 11 mph 1018.8mb 70f 76f
4:00 8 11 mph 1018.8mb 70f 76f
3:54 5 10 mph 1018.9mb 70f 77f
3:48 7 11 mph 1018.8mb 70f 77f
3:42 8 10 mph 1018.9mb 70f 77f
3:36 3 7 mph 1018.8mb 70f 77f
3:30 6 14 mph 1018.9mb 70f 77f
3:24 10 13 mph 1018.9mb 70f 77f
3:18 10 15 mph 1019mb 70f 77f
3:12 7 15 mph 1019mb 70f 76f
3:06 10 15 mph 1019mb 70f 77f
3:00 5 15 mph 1019.1mb 70f 76f
2:54 8 10 mph 1019.1mb 70f 76f
2:48 7 14 mph 1019.1mb 70f 76f
2:42 11 14 mph 1019.2mb 70f 76f
2:36 8 11 mph 1019.2mb 70f 76f
2:30 9 14 mph 1019.2mb 70f 76f
2:24 6 11 mph 1019.3mb 70f 76f
2:18 13 18 mph 1019.3mb 70f 76f
2:12 13 16 mph 1019.3mb 70f 76f
2:06 9 15 mph 1019.3mb 70f 75f
2:00 6 8 mph 1019.3mb 70f 75f
1:54 5 9 mph 1019.4mb 70f 76f
1:48 10 16 mph 1019.4mb 70f 75f
1:42 9 17 mph 1019.3mb 70f 74f
1:36 9 13 mph 1019.3mb 70f 75f
1:30 9 14 mph 1019.3mb 70f 75f
1:24 7 15 mph 1019.4mb 70f 74f
1:18 11 15 mph 1019.4mb 70f 74f
1:12 7 15 mph 1019.5mb 70f 74f
1:06 7 14 mph 1019.5mb 70f 74f
1:00 7 14 mph 1019.4mb 70f 74f
12:54 8 14 mph 1019.4mb 70f 74f
12:48 11 16 mph 1019.4mb 69f 74f
12:42 9 17 mph 1019.4mb 69f 74f
12:36 11 21 mph 1019.5mb 69f 74f
12:30 6 10 mph 1019.4mb 69f 74f
12:24 7 14 mph 1019.5mb 69f 73f
12:18 10 15 mph 1019.5mb 69f 73f
12:12 13 15 mph 1019.5mb 69f 73f
12:06 9 14 mph 1019.5mb 69f 73f
12:00 11 15 mph 1019.5mb 69f 73f
11:54 8 10 mph 1019.6mb 69f 73f
11:48 7 15 mph 1019.6mb 69f 73f
11:42 6 10 mph 1019.7mb 69f 72f
11:36 10 14 mph 1019.8mb 69f 72f
11:30 10 14 mph 1019.8mb 69f 73f
11:24 6 13 mph 1019.8mb 69f 71f
11:18 11 15 mph 1019.7mb 69f 72f
11:12 9 13 mph 1019.7mb 69f 72f
11:06 8 11 mph 1019.8mb 70f 71f
11:00 9 10 mph 1019.8mb 70f 71f
10:54 7 11 mph 1019.9mb 70f 71f
10:48 7 11 mph 1019.8mb 70f 71f
10:42 8 10 mph 1019.8mb 70f 71f
10:36 7 11 mph 1019.8mb 70f 71f
10:30 7 13 mph 1019.8mb 70f 70f
10:24 9 11 mph 1019.8mb 70f 70f
10:18 6 10 mph 1019.9mb 70f 70f
10:12 8 13 mph 1019.9mb 70f 70f
10:06 7 10 mph 1019.9mb 70f 70f